Home   Weather   Tempe   Past weeks
Flag for USA

Past Weather in Tempe, Arizona, USA — Yesterday and Last 2 Weeks

Now
64 °F

Passing clouds.


Feels Like: 64 °F
Forecast: 72 / 51 °F
Wind: 6 mph from Southwest

Location: Phoenix Sky Harbor International Airport

Current Time: Mar 22, 2019 at 12:10:46 pm

Latest Report: Mar 22, 2019 at 10:51 am


Visibility: 10 mi

Pressure: 30.07 "Hg

Humidity: 38%

Dew Point: 38 °F

Location of TempeLocation

Past Weather in Tempe — Graph

°F

Tempe Temperature Yesterday

Maximum temperature yesterday: 69 °F (at 1:51 pm)
Minimum temperature yesterday: 57 °F (at 11:51 pm)
Average temperature yesterday: 63 °F

High & Low Weather Summary for the Past Weeks

 TemperatureHumidityPressure
High84 °F (Mar 19, 2:51 pm)100% (Mar 12, 3:51 am)30.14 "Hg (Mar 12, 3:51 am)
Low44 °F (Mar 14, 6:51 am)13% (Mar 20, 3:51 pm)29.67 "Hg (Mar 12, 4:51 pm)
Average63 °F43%29.90 "Hg
* Reported Mar 7 10:51 am — Mar 22 10:51 am, Tempe. Weather by CustomWeather, © 2019

Note: Actual official high and low records may vary slightly from our data, if they occured in-between our weather recording intervals... More about our weather records

Advertising

Tempe Weather History for the Previous 24 Hours

Scroll right to see more
 ConditionsComfort  
Time TempWeatherWind HumidityBarometerVisibility
10:51 am
Fri, Mar 22
64 °FPassing clouds.6 mph38%30.07 "Hg10 mi
9:51 am61 °FPassing clouds.7 mph41%30.07 "Hg10 mi
8:51 am57 °FPassing clouds.No wind49%30.06 "Hg10 mi
7:51 am54 °FPassing clouds.No wind57%30.06 "Hg10 mi
6:51 am51 °FPassing clouds.5 mph66%30.04 "Hg10 mi
5:51 am52 °FClear.3 mph64%30.01 "Hg10 mi
4:51 am52 °FClear.3 mph69%29.99 "Hg10 mi
3:51 am53 °FClear.5 mph66%29.98 "Hg10 mi
2:51 am58 °FClear.6 mph38%29.98 "Hg10 mi
1:51 am59 °FClear.5 mph35%29.98 "Hg10 mi
12:51 am57 °FPassing clouds.6 mph49%29.98 "Hg10 mi
11:51 pm
Thu, Mar 21
57 °FPassing clouds.5 mph51%29.98 "Hg10 mi
10:51 pm61 °FPartly cloudy.6 mph32%29.98 "Hg10 mi
9:51 pm60 °FPassing clouds.5 mph53%29.98 "Hg10 mi
8:51 pm62 °FPassing clouds.5 mph39%29.97 "Hg10 mi
7:51 pm63 °FPassing clouds.5 mph40%29.96 "Hg10 mi
6:51 pm65 °FPassing clouds.3 mph31%29.96 "Hg10 mi
5:51 pm66 °FPartly sunny.3 mph26%29.95 "Hg10 mi
4:51 pm67 °FPartly sunny.7 mph26%29.96 "Hg10 mi
3:51 pm66 °FPartly sunny.8 mph31%29.97 "Hg10 mi
1:51 pm69 °FPartly sunny.8 mph26%29.99 "Hg10 mi
12:51 pm68 °FBroken clouds.3 mph30%30.00 "Hg10 mi
Weather by CustomWeather, © 2019

See weather overview